Wind_Speed
16 16 17 18 19 19 20 20 21 20 19 17 17 17 17 16 16 17 18 19 21 22 23 23 23 24 24 24 26 29 31 32 33 34 34 34 32 30 29 29 31 33 36 39
16 17 17 17 17 18 18 19 19 19 18 17 16 16 15 14 14 15 17 18 20 21 21 21 21 21 21 22 24 25 27 28 28 28 28 28 26 23 21 21 22 25 27 29
16 16 16 16 16 17 17 18 19 18 17 17 16 15 14 13 13 14 16 17 18 19 19 19 19 19 20 20 21 22 23 24 24 24 24 23 20 18 16 15 16 18 19 20
15 16 16 15 16 16 17 17 17 17 17 17 16 15 13 13 13 14 15 16 16 16 17 17 17 18 18 18 18 19 20 21 21 21 21 19 17 15 12 10 8 9 10 12
16 16 15 15 16 16 16 17 17 17 17 17 16 15 14 14 14 14 15 15 15 15 16 16 16 16 16 15 16 17 17 18 18 18 18 16 15 13 11 8 6 4 4 6
17 17 17 16 17 17 17 17 17 18 18 18 17 16 15 14 14 13 14 14 15 15 15 15 15 15 14 14 14 15 15 16 16 16 16 15 14 13 11 10 8 5 3 3
19 18 18 17 18 18 18 17 18 18 19 18 18 17 16 15 14 14 13 14 14 14 14 14 14 13 13 13 13 13 14 14 14 15 15 14 14 13 11 10 8 6 5 4
20 20 19 18 18 19 18 18 18 19 19 19 19 18 16 15 15 14 13 13 13 13 13 13 13 13 12 12 12 12 13 13 14 14 14 14 14 13 12 11 9 8 7 7
20 20 20 20 20 19 20 20 20 20 20 20 20 19 17 16 16 15 14 14 14 14 14 13 13 13 12 12 12 12 13 13 14 14 14 14 13 13 12 11 11 10 10 10
20 20 21 21 20 21 21 21 22 22 22 21 20 20 19 18 17 16 15 15 15 14 14 14 13 13 13 12 12 12 13 13 14 14 14 14 13 13 13 13 13 13 13 13
21 21 21 21 21 22 22 23 23 23 23 22 21 21 20 19 18 17 17 16 16 16 15 14 14 14 14 14 13 13 13 14 15 15 15 14 14 14 14 15 15 15 16 17
21 21 21 21 22 22 23 23 24 24 24 24 23 22 21 20 19 19 18 17 17 17 16 15 15 15 15 15 15 15 15 15 16 16 16 16 16 16 17 17 18 18 19 20
22 22 21 21 22 22 23 24 24 25 25 25 24 24 23 22 21 20 20 19 18 18 18 17 17 16 16 16 16 16 16 17 17 17 18 18 18 18 19 19 20 21 22 24
22 22 22 22 22 23 23 24 24 24 25 26 26 25 24 23 23 22 21 21 20 20 19 19 18 18 17 17 17 18 18 18 18 19 19 19 19 20 21 22 23 24 25 27
23 22 22 22 22 23 24 24 24 25 25 26 26 26 26 25 24 24 23 22 22 21 21 20 19 19 19 19 19 19 19 19 20 20 20 21 21 22 23 24 25 26 28 30
22 21 22 22 23 23 24 25 25 25 25 26 26 27 27 27 26 25 24 23 23 22 21 21 20 20 20 20 21 21 21 21 21 21 21 22 23 24 25 26 27 29 30 32
21 20 21 22 22 23 24 25 25 26 26 26 27 27 27 27 27 26 25 25 24 23 22 22 21 21 21 21 22 22 22 22 22 22 23 24 25 26 27 28 29 31 32 33
19 19 20 21 22 22 23 24 25 25 25 26 26 27 27 27 27 27 26 26 25 24 23 23 22 22 22 22 23 23 24 24 23 24 24 25 26 27 28 30 31 32 33 34
18 18 19 20 21 22 22 23 24 25 25 25 26 26 27 27 27 27 27 26 25 24 23 23 23 23 24 24 24 24 24 24 24 25 25 26 27 28 30 31 32 33 34 35
18 18 18 19 20 20 21 22 23 24 24 25 25 26 26 27 27 26 26 26 26 26 25 25 24 24 25 25 24 25 25 25 25 26 27 27 28 29 30 32 33 34 35 36
17 18 18 19 19 19 20 20 21 22 23 23 24 25 25 26 26 25 25 26 26 26 26 26 26 25 25 25 25 25 25 25 25 26 27 28 28 30 31 32 33 34 35 37
17 17 18 18 18 17 18 18 19 19 20 21 22 23 24 24 25 25 25 26 26 26 26 26 26 26 26 26 26 26 26 26 26 26 27 28 29 31 32 33 34 35 36 37
17 17 17 16 17 17 17 17 18 18 19 19 20 20 21 22 23 24 25 26 26 26 26 26 26 26 26 26 26 26 26 26 27 27 28 29 30 32 33 34 34 35 36 38
16 16 16 16 16 17 17 17 17 18 18 19 20 20 20 21 22 23 24 24 25 25 26 26 27 27 27 27 27 27 27 27 28 28 29 30 31 32 33 34 35 36 37 39
17 17 17 17 18 18 19 19 19 19 19 20 21 21 21 22 22 22 23 24 24 25 26 26 27 27 27 27 28 28 28 28 29 29 31 32 32 33 33 34 35 37 38 40
19 19 20 20 20 21 21 21 21 21 21 21 21 21 22 22 23 23 23 24 24 25 26 26 27 27 28 28 28 29 29 29 29 30 31 31 32 33 33 35 36 37 38 40
22 22 22 22 22 22 22 23 23 23 23 23 22 22 22 22 23 23 24 25 25 26 26 27 27 27 28 28 29 29 30 30 30 31 31 31 32 33 34 35 36 37 39 41
Wind_Direction
204 205 207 207 207 205 204 206 211 217 221 219 221 224 228 235 245 258 269 278 282 282 283 285 287 288 290 294 299 305 311 314 313 314 313 312 308 300 288 275 266 262 259 257
200 202 203 204 204 205 208 212 216 220 221 220 218 222 230 241 254 267 278 285 288 287 285 285 287 290 292 296 303 310 318 321 322 322 321 320 315 310 301 285 270 264 259 254
203 205 206 208 210 212 215 217 219 221 220 218 218 224 234 245 258 272 282 290 293 292 288 287 288 292 295 298 306 312 320 325 329 330 332 332 326 317 309 295 278 266 257 250
210 211 214 214 217 219 221 221 221 221 218 217 221 229 238 250 264 277 285 293 297 298 296 293 292 293 297 302 308 314 320 328 334 338 341 344 343 337 328 315 296 273 255 247
219 220 221 222 224 225 224 223 222 219 218 221 227 235 244 255 269 279 288 294 299 301 302 300 296 297 299 303 310 317 322 329 336 343 349 352 355 358 358 355 341 315 274 247
228 230 230 229 230 229 227 226 222 221 221 225 232 239 247 257 269 283 293 298 301 303 305 304 302 301 302 305 313 322 328 333 340 344 352 358 2 5 7 10 10 4 348 295
234 236 236 235 235 233 231 229 226 224 225 230 235 241 250 260 270 283 294 299 302 304 307 308 309 310 310 311 317 324 332 336 340 346 351 358 1 6 7 7 5 3 355 332
239 240 240 239 238 235 234 232 229 228 229 233 237 244 252 261 270 281 291 297 301 303 304 306 309 312 314 317 322 327 334 341 345 349 355 358 1 2 2 2 359 353 343 331
243 243 242 240 239 237 235 234 232 232 233 235 239 246 253 261 268 277 287 294 299 302 303 303 306 309 312 315 320 326 333 338 341 343 346 349 351 353 354 353 350 344 338 330
244 243 243 240 238 237 236 235 234 235 236 238 242 248 254 260 266 273 281 289 295 299 301 301 301 304 306 309 313 317 323 328 330 333 335 337 338 339 339 339 337 334 329 325
244 245 244 241 239 238 238 238 238 238 239 241 244 250 255 261 266 271 277 285 290 295 297 297 296 298 299 301 304 308 313 318 321 323 325 328 331 332 333 332 331 329 326 324
242 245 246 244 242 241 241 241 241 242 243 244 247 252 257 262 266 270 274 280 286 289 293 291 291 293 294 295 296 300 305 311 315 318 321 323 326 327 328 328 328 326 324 321
240 244 247 247 246 244 244 244 245 245 246 247 250 254 259 263 267 270 272 276 280 283 287 287 287 289 290 291 292 295 299 304 309 314 317 319 321 323 324 324 323 321 320 319
238 241 245 248 249 247 246 246 247 248 249 250 252 256 259 263 267 270 272 274 276 278 281 283 283 284 286 287 288 291 294 299 303 308 312 315 317 319 319 319 319 318 318 318
237 241 244 247 249 249 249 249 251 251 252 252 253 256 259 262 266 269 271 273 274 275 277 279 280 281 283 283 284 287 290 294 299 303 307 310 313 314 316 316 317 317 317 317
235 240 243 248 250 251 251 251 252 254 254 255 255 257 259 262 265 267 270 271 272 272 273 275 277 279 281 281 282 284 287 291 295 298 302 305 309 312 314 315 316 317 317 317
234 239 244 249 251 253 254 253 254 254 255 255 256 257 258 260 263 265 267 268 269 269 270 271 274 276 279 280 281 282 284 288 291 294 298 303 306 309 312 314 315 316 317 318
236 242 247 251 254 254 254 254 254 254 255 256 256 256 257 260 261 262 264 265 266 266 267 268 270 273 277 280 281 282 284 287 290 293 297 301 305 307 310 312 315 316 318 318
240 247 252 255 257 256 256 256 255 255 255 256 257 257 257 259 260 261 261 261 261 261 263 265 268 272 275 279 281 283 285 288 291 294 297 301 304 307 309 312 314 317 318 319
244 250 256 260 261 261 260 260 258 256 256 257 258 258 258 258 259 259 259 258 258 258 260 264 268 271 275 277 279 282 284 287 290 294 297 301 304 307 310 313 315 317 318 319
248 254 259 263 265 265 264 264 261 259 258 258 258 258 258 257 257 257 256 256 257 258 259 263 267 270 274 276 279 281 283 286 290 294 298 301 304 308 311 313 315 317 318 319
252 256 260 263 264 265 265 265 264 262 260 260 260 260 259 258 256 256 255 256 257 258 260 261 265 268 272 276 279 281 283 286 290 294 298 301 305 308 311 314 315 317 318 319
250 253 256 260 263 264 267 268 268 266 264 264 264 263 261 259 258 257 256 257 258 258 259 260 264 268 271 275 278 279 282 286 290 294 299 302 305 308 311 313 315 316 318 319
248 251 255 259 263 265 268 270 272 271 270 268 266 265 264 263 261 260 259 259 258 258 259 262 264 267 270 272 275 278 282 286 290 294 298 302 305 308 311 313 315 316 318 320
250 254 257 262 267 270 273 274 276 275 274 272 271 270 268 266 265 264 262 261 260 261 262 263 264 266 268 271 274 278 281 285 289 293 297 301 305 308 311 313 315 316 318 320
257 262 266 270 273 275 276 276 277 278 278 277 274 272 271 269 267 267 265 264 264 264 264 265 267 268 269 272 275 279 282 286 289 293 297 300 304 307 310 313 315 316 318 320
264 267 270 272 275 277 278 280 280 279 278 278 277 275 274 272 271 269 268 266 266 266 267 269 270 272 273 275 277 280 283 286 289 292 296 299 303 307 310 312 315 317 319 321
Height
5641 5644 5646 5649 5652 5654 5657 5660 5663 5665 5667 5670 5672 5674 5676 5677 5678 5678 5677 5676 5674 5672 5670 5668 5665 5663 5660 5656 5653 5647 5641 5633 5625 5617 5608 5599 5590 5582 5577 5574 5573 5575 5577 5580
5639 5641 5644 5646 5649 5652 5654 5657 5659 5661 5664 5666 5667 5669 5671 5672 5672 5672 5671 5670 5668 5666 5663 5661 5659 5656 5653 5650 5646 5640 5634 5627 5619 5611 5602 5594 5585 5579 5573 5570 5568 5569 5570 5572
5638 5640 5642 5645 5647 5649 5651 5653 5655 5657 5660 5661 5664 5665 5666 5667 5668 5667 5666 5664 5662 5659 5657 5655 5652 5650 5647 5643 5639 5634 5628 5622 5614 5607 5599 5590 5583 5577 5572 5568 5566 5566 5566 5568
5635 5638 5640 5644 5644 5645 5647 5649 5651 5653 5655 5658 5660 5661 5662 5663 5663 5662 5661 5659 5657 5654 5652 5649 5647 5644 5641 5638 5634 5629 5624 5618 5611 5604 5597 5590 5583 5577 5572 5569 5566 5565 5565 5567
5633 5635 5637 5640 5640 5642 5644 5646 5647 5650 5652 5654 5655 5657 5658 5659 5658 5658 5656 5654 5652 5649 5647 5644 5642 5639 5636 5633 5629 5625 5620 5615 5609 5603 5596 5590 5584 5578 5574 5571 5568 5567 5566 5567
5629 5631 5633 5636 5637 5638 5641 5642 5644 5646 5648 5650 5651 5653 5655 5654 5654 5653 5651 5649 5647 5645 5642 5640 5637 5634 5631 5628 5625 5621 5617 5612 5607 5602 5596 5591 5586 5581 5577 5574 5571 5570 5569 5569
5625 5626 5629 5631 5632 5634 5638 5639 5640 5641 5643 5645 5647 5649 5650 5649 5649 5648 5647 5645 5643 5641 5638 5636 5633 5630 5628 5625 5622 5618 5614 5610 5606 5601 5596 5592 5587 5583 5579 5577 5574 5573 5572 5571
5620 5622 5626 5626 5627 5630 5632 5633 5635 5637 5639 5641 5642 5644 5645 5645 5644 5643 5642 5641 5639 5637 5635 5632 5630 5627 5624 5622 5619 5616 5612 5608 5605 5601 5597 5592 5589 5585 5582 5579 5577 5575 5574 5573
5616 5619 5620 5620 5622 5624 5626 5628 5630 5632 5634 5636 5638 5639 5640 5640 5639 5639 5638 5636 5634 5633 5631 5628 5626 5624 5621 5619 5616 5613 5610 5607 5603 5600 5596 5593 5589 5586 5583 5580 5578 5576 5574 5573
5610 5612 5613 5615 5617 5619 5621 5623 5625 5627 5629 5631 5632 5633 5634 5635 5635 5634 5633 5631 5630 5628 5626 5624 5622 5620 5618 5616 5613 5611 5608 5605 5602 5599 5596 5592 5589 5586 5583 5580 5578 5575 5573 5571
5604 5606 5607 5609 5611 5613 5615 5617 5619 5621 5623 5625 5627 5628 5629 5629 5629 5629 5628 5627 5625 5624 5622 5620 5618 5617 5615 5613 5611 5608 5606 5603 5600 5597 5594 5591 5588 5585 5582 5579 5576 5573 5571 5568
5599 5600 5602 5604 5605 5607 5609 5611 5613 5615 5617 5619 5621 5622 5622 5623 5623 5623 5622 5621 5620 5619 5617 5616 5614 5612 5611 5609 5607 5605 5603 5600 5597 5594 5591 5588 5585 5582 5579 5576 5573 5570 5567 5564
5592 5593 5595 5597 5599 5601 5603 5605 5607 5609 5611 5612 5614 5615 5616 5616 5617 5617 5616 5616 5615 5614 5612 5611 5609 5608 5606 5605 5603 5601 5599 5596 5594 5591 5588 5585 5581 5578 5575 5572 5569 5566 5563 5559
5585 5587 5589 5591 5593 5594 5596 5598 5600 5602 5603 5605 5607 5608 5609 5610 5610 5610 5610 5609 5609 5608 5607 5605 5604 5603 5601 5600 5598 5596 5594 5592 5589 5586 5583 5580 5577 5574 5571 5568 5565 5561 5558 5554
5579 5581 5583 5585 5586 5588 5589 5591 5593 5595 5596 5598 5599 5600 5602 5602 5603 5603 5603 5602 5602 5601 5601 5600 5599 5597 5596 5594 5593 5591 5589 5587 5584 5581 5579 5576 5573 5570 5566 5563 5559 5555 5552 5547
5573 5575 5577 5578 5580 5581 5582 5584 5586 5587 5589 5590 5591 5593 5594 5594 5595 5595 5595 5595 5595 5595 5594 5593 5593 5591 5590 5588 5587 5585 5583 5581 5579 5576 5573 5571 5568 5564 5561 5557 5553 5549 5545 5540
5567 5569 5571 5572 5573 5574 5575 5576 5578 5579 5581 5582 5583 5584 5585 5586 5587 5587 5588 5588 5588 5588 5587 5587 5586 5585 5584 5582 5581 5579 5577 5575 5573 5570 5568 5565 5562 5558 5555 5551 5547 5542 5538 5533
5561 5563 5564 5566 5566 5567 5568 5569 5570 5571 5572 5574 5575 5576 5577 5578 5579 5579 5580 5580 5580 5580 5580 5580 5579 5578 5577 5576 5574 5573 5571 5568 5566 5564 5561 5558 5555 5552 5548 5544 5540 5535 5530 5525
5555 5557 5558 5559 5559 5560 5561 5561 5562 5563 5564 5565 5567 5568 5568 5569 5570 5571 5572 5572 5572 5573 5573 5572 5572 5571 5570 5569 5567 5566 5564 5562 5560 5557 5555 5552 5548 5545 5541 5537 5533 5528 5523 5517
5550 5551 5552 5553 5553 5553 5554 5554 5555 5556 5556 5557 5558 5559 5560 5561 5562 5562 5563 5564 5564 5565 5565 5565 5565 5564 5563 5562 5560 5559 5557 5555 5553 5550 5548 5545 5541 5538 5534 5530 5525 5520 5515 5509
5545 5546 5546 5547 5547 5547 5547 5547 5548 5548 5549 5550 5550 5551 5552 5552 5553 5554 5555 5555 5556 5557 5557 5557 5557 5556 5555 5554 5553 5551 5549 5547 5545 5543 5540 5537 5534 5530 5526 5522 5517 5512 5507 5501
5539 5540 5541 5541 5541 5541 5541 5541 5541 5541 5542 5542 5543 5543 5544 5544 5545 5546 5547 5547 5548 5549 5549 5549 5549 5548 5547 5546 5545 5544 5542 5540 5538 5536 5533 5530 5527 5523 5519 5514 5510 5504 5499 5493
5534 5535 5535 5536 5536 5536 5535 5535 5535 5535 5535 5535 5536 5536 5536 5537 5537 5538 5539 5539 5540 5540 5541 5541 5540 5540 5539 5538 5537 5536 5534 5532 5530 5528 5525 5522 5519 5515 5511 5507 5502 5496 5491 5485
5529 5530 5530 5530 5530 5530 5530 5530 5529 5529 5529 5529 5529 5529 5529 5530 5530 5530 5531 5531 5532 5532 5532 5532 5532 5531 5531 5530 5529 5528 5526 5524 5522 5520 5517 5514 5511 5507 5503 5499 5494 5488 5483 5477
5524 5525 5525 5525 5525 5525 5524 5524 5524 5523 5523 5523 5522 5522 5522 5523 5523 5523 5523 5523 5524 5524 5524 5523 5523 5523 5522 5522 5521 5520 5518 5516 5514 5512 5509 5506 5503 5499 5495 5490 5485 5480 5475 5468
5518 5519 5519 5519 5519 5518 5518 5518 5517 5517 5516 5516 5516 5515 5515 5515 5515 5515 5515 5516 5516 5516 5515 5515 5515 5515 5514 5513 5512 5511 5510 5508 5506 5504 5501 5498 5495 5491 5487 5482 5477 5472 5466 5460
5511 5511 5512 5512 5511 5511 5511 5510 5510 5510 5509 5509 5508 5508 5508 5508 5507 5507 5507 5507 5507 5507 5507 5507 5507 5506 5506 5505 5504 5503 5501 5500 5498 5495 5493 5490 5486 5483 5479 5474 5469 5464 5458 5452